Temperatura - Umidità - Pioggia orarie dal 07-08-2020 al 15-08-2020

Dati orari da stazione meteo dal 07-08-2020 al 15-08-2020

Nome Stazione Data Ora Temperatura [°C] Umidità [%] Pioggia [mm] Pressione[hPa]
Sant'Anna di Vinadio 07-08-2020 02:00 12.1 69 0 1025.9
Sant'Anna di Vinadio 07-08-2020 02:10 12.1 67 0 1025.9
Sant'Anna di Vinadio 07-08-2020 02:20 12.2 64 0 1025.9
Sant'Anna di Vinadio 07-08-2020 02:30 12.4 64 0 1025.9
Sant'Anna di Vinadio 07-08-2020 02:40 12.5 61 0 1025.8
Sant'Anna di Vinadio 07-08-2020 02:50 12.5 58 0 1025.8
Sant'Anna di Vinadio 07-08-2020 03:00 12.5 59 0 1025.7
Sant'Anna di Vinadio 07-08-2020 03:10 12.1 58 0 1025.7
Sant'Anna di Vinadio 07-08-2020 03:20 12.1 57 0 1025.6
Sant'Anna di Vinadio 07-08-2020 03:30 12.3 56 0 1025.5
Sant'Anna di Vinadio 07-08-2020 03:40 12.4 56 0 1025.5
Sant'Anna di Vinadio 07-08-2020 03:50 12.4 56 0 1025.4
Sant'Anna di Vinadio 07-08-2020 04:00 12.5 56 0 1025.4
Sant'Anna di Vinadio 07-08-2020 04:10 12.5 57 0 1025.3
Sant'Anna di Vinadio 07-08-2020 04:20 12.3 58 0 1025.3
Sant'Anna di Vinadio 07-08-2020 04:30 12.3 56 0 1025.2
Sant'Anna di Vinadio 07-08-2020 04:40 12.4 54 0 1025.2
Sant'Anna di Vinadio 07-08-2020 04:50 12.6 53 0 1025.2
Sant'Anna di Vinadio 07-08-2020 05:00 12.6 42 0 1025.2
Sant'Anna di Vinadio 07-08-2020 05:10 12.7 40 0 1025.1
Sant'Anna di Vinadio 07-08-2020 05:20 12.7 40 0 1025.1
Sant'Anna di Vinadio 07-08-2020 05:30 12.6 41 0 1025.1
Sant'Anna di Vinadio 07-08-2020 05:40 12.7 41 0 1025
Sant'Anna di Vinadio 07-08-2020 05:50 12.8 36 0 1024.9
Sant'Anna di Vinadio 07-08-2020 06:00 12.9 34 0 1024.9
Sant'Anna di Vinadio 07-08-2020 06:10 12.9 31 0 1024.9
Sant'Anna di Vinadio 07-08-2020 06:20 12.9 31 0 1024.9
Sant'Anna di Vinadio 07-08-2020 06:30 13.1 29 0 1025
Sant'Anna di Vinadio 07-08-2020 06:40 13.1 29 0 1025
Sant'Anna di Vinadio 07-08-2020 06:50 13.1 28 0 1025.1
Sant'Anna di Vinadio 07-08-2020 07:00 13.1 28 0 1025.1
Sant'Anna di Vinadio 07-08-2020 07:10 13.2 28 0 1025.1
Sant'Anna di Vinadio 07-08-2020 07:20 13.6 26 0 1025.1
Sant'Anna di Vinadio 07-08-2020 07:30 13.6 26 0 1025.1
Sant'Anna di Vinadio 07-08-2020 07:40 14 25 0 1025.1
Sant'Anna di Vinadio 07-08-2020 07:50 14.3 23 0 1025.1
Sant'Anna di Vinadio 07-08-2020 08:00 15.6 23 0 1025.1
Sant'Anna di Vinadio 07-08-2020 08:10 16.1 25 0 1025
Sant'Anna di Vinadio 07-08-2020 08:20 16.7 27 0 1025
Sant'Anna di Vinadio 07-08-2020 08:30 17 29 0 1025.1
Sant'Anna di Vinadio 07-08-2020 08:40 17.5 29 0 1025.1
Sant'Anna di Vinadio 07-08-2020 08:50 17.6 29 0 1025.1
Sant'Anna di Vinadio 07-08-2020 09:00 17.9 29 0 1025.2
Sant'Anna di Vinadio 07-08-2020 09:10 17.7 29 0 1025.2
Sant'Anna di Vinadio 07-08-2020 09:20 17.7 31 0 1025.3
Sant'Anna di Vinadio 07-08-2020 09:30 17.4 32 0 1025.3
Sant'Anna di Vinadio 07-08-2020 09:40 17.3 31 0 1025.4
Sant'Anna di Vinadio 07-08-2020 09:50 17.7 32 0 1025.4
Sant'Anna di Vinadio 07-08-2020 10:00 17.6 33 0 1025.4
Sant'Anna di Vinadio 07-08-2020 10:10 17.4 31 0 1025.4
Sant'Anna di Vinadio 07-08-2020 10:20 17.4 32 0 1025.4
Sant'Anna di Vinadio 07-08-2020 10:30 17.3 33 0 1025.4
Sant'Anna di Vinadio 07-08-2020 10:40 17.4 34 0 1025.4
Sant'Anna di Vinadio 07-08-2020 10:50 17.7 35 0 1025.4
Sant'Anna di Vinadio 07-08-2020 11:00 18 34 0 1025.4
Sant'Anna di Vinadio 07-08-2020 11:10 17.9 34 0 1025.5
Sant'Anna di Vinadio 07-08-2020 11:20 18.3 35 0 1025.5
Sant'Anna di Vinadio 07-08-2020 11:30 18.4 35 0 1025.5
Sant'Anna di Vinadio 07-08-2020 11:40 19.1 36 0 1025.5
Sant'Anna di Vinadio 07-08-2020 11:50 19 38 0 1025.5
Sant'Anna di Vinadio 07-08-2020 12:00 18.4 38 0 1025.5
Sant'Anna di Vinadio 07-08-2020 12:10 18.6 40 0 1025.5
Sant'Anna di Vinadio 07-08-2020 12:20 18.5 40 0 1025.5
Sant'Anna di Vinadio 07-08-2020 12:30 19.1 39 0 1025.5
Sant'Anna di Vinadio 07-08-2020 12:40 19.5 38 0 1025.4
Sant'Anna di Vinadio 07-08-2020 12:50 19.6 37 0 1025.5
Sant'Anna di Vinadio 07-08-2020 13:00 19.5 37 0 1025.5
Sant'Anna di Vinadio 07-08-2020 13:10 19.7 37 0 1025.5
Sant'Anna di Vinadio 07-08-2020 13:20 19.8 34 0 1025.5
Sant'Anna di Vinadio 07-08-2020 13:30 19.5 35 0 1025.5
Sant'Anna di Vinadio 07-08-2020 13:40 20.6 35 0 1025.5
Sant'Anna di Vinadio 07-08-2020 13:50 19.9 37 0 1025.5
Sant'Anna di Vinadio 07-08-2020 14:00 20.1 38 0 1025.5
Sant'Anna di Vinadio 07-08-2020 14:10 20.5 38 0 1025.5
Sant'Anna di Vinadio 07-08-2020 14:20 20.6 39 0 1025.5
Sant'Anna di Vinadio 07-08-2020 14:30 20.6 42 0 1025.5
Sant'Anna di Vinadio 07-08-2020 14:40 19 45 0 1025.6
Sant'Anna di Vinadio 07-08-2020 14:50 18.9 49 0 1025.6
Sant'Anna di Vinadio 07-08-2020 15:00 19 48 0 1025.6
Sant'Anna di Vinadio 07-08-2020 15:10 18.4 51 0 1025.6
Sant'Anna di Vinadio 07-08-2020 15:20 18.2 52 0 1025.6
Sant'Anna di Vinadio 07-08-2020 15:30 18.2 53 0 1025.6
Sant'Anna di Vinadio 07-08-2020 15:40 18.4 52 0 1025.7
Sant'Anna di Vinadio 07-08-2020 15:50 18.3 54 0 1025.7
Sant'Anna di Vinadio 07-08-2020 16:00 18.4 53 0 1025.7
Sant'Anna di Vinadio 07-08-2020 16:10 18.3 55 0 1025.7
Sant'Anna di Vinadio 07-08-2020 16:20 18 56 0 1025.7
Sant'Anna di Vinadio 07-08-2020 16:30 18.2 56 0 1025.8
Sant'Anna di Vinadio 07-08-2020 16:40 18.2 56 0 1025.8
Sant'Anna di Vinadio 07-08-2020 16:50 18.2 57 0 1025.8
Sant'Anna di Vinadio 07-08-2020 17:00 18.1 58 0 1025.8
Sant'Anna di Vinadio 07-08-2020 17:10 17.8 59 0 1025.8
Sant'Anna di Vinadio 07-08-2020 17:20 17.5 60 0 1025.9
Sant'Anna di Vinadio 07-08-2020 17:30 17.2 61 0 1025.9
Sant'Anna di Vinadio 07-08-2020 17:40 17.1 62 0 1025.9
Sant'Anna di Vinadio 07-08-2020 17:50 17.4 60 0 1025.9
Sant'Anna di Vinadio 07-08-2020 18:00 17.2 61 0 1025.9
Sant'Anna di Vinadio 07-08-2020 18:10 17.1 62 0 1025.9
Sant'Anna di Vinadio 07-08-2020 18:20 16.9 65 0 1025.9
Sant'Anna di Vinadio 07-08-2020 18:30 16.7 65 0 1025.9
Sant'Anna di Vinadio 07-08-2020 18:40 16.6 64 0 1025.9
Sant'Anna di Vinadio 07-08-2020 18:50 16.5 67 0 1025.9
Sant'Anna di Vinadio 07-08-2020 19:00 15.8 69 0 1026
Sant'Anna di Vinadio 07-08-2020 19:10 15.6 71 0 1026
Sant'Anna di Vinadio 07-08-2020 19:20 15.7 70 0 1026
Sant'Anna di Vinadio 07-08-2020 19:30 15.6 73 0 1026.1
Sant'Anna di Vinadio 07-08-2020 19:40 15.2 76 0 1026.2
Sant'Anna di Vinadio 07-08-2020 19:50 14.9 77 0 1026.2
Sant'Anna di Vinadio 07-08-2020 20:00 14.9 80 0 1026.1
Sant'Anna di Vinadio 07-08-2020 20:10 14.5 81 0 1026.1
Sant'Anna di Vinadio 07-08-2020 20:20 14.4 82 0 1026.1
Sant'Anna di Vinadio 07-08-2020 20:30 14.2 85 0 1026.1
Sant'Anna di Vinadio 07-08-2020 20:40 14 89 0 1026.2
Sant'Anna di Vinadio 07-08-2020 20:50 13.9 91 0 1026.3
Sant'Anna di Vinadio 07-08-2020 21:00 13.9 91 0 1026.4
Sant'Anna di Vinadio 07-08-2020 21:10 13.8 94 0 1026.4
Sant'Anna di Vinadio 07-08-2020 21:20 13.7 96 0 1026.5
Sant'Anna di Vinadio 07-08-2020 21:30 13.8 99 0 1026.6
Sant'Anna di Vinadio 07-08-2020 21:40 13.7 104 0 1026.7
Sant'Anna di Vinadio 07-08-2020 21:50 13.6 104 0 1026.8
Sant'Anna di Vinadio 07-08-2020 22:00 13.6 104 0 1026.9
Sant'Anna di Vinadio 07-08-2020 22:10 13.6 104 0 1027
Sant'Anna di Vinadio 07-08-2020 22:20 13.6 104 0 1027
Sant'Anna di Vinadio 07-08-2020 22:30 13.6 104 0 1027.1
Sant'Anna di Vinadio 07-08-2020 22:40 13.6 104 0 1027.2
Sant'Anna di Vinadio 07-08-2020 22:50 13.6 104 0 1027.2
Sant'Anna di Vinadio 07-08-2020 23:00 13.7 104 0 1027.2
Sant'Anna di Vinadio 07-08-2020 23:10 13.7 104 0 1027.2
Sant'Anna di Vinadio 07-08-2020 23:20 13.6 104 0 1027.3
Sant'Anna di Vinadio 07-08-2020 23:30 13.6 104 0 1027.3
Sant'Anna di Vinadio 07-08-2020 23:40 13.6 104 0 1027.4
Sant'Anna di Vinadio 07-08-2020 23:50 13.6 104 0 1027.5
Sant'Anna di Vinadio 08-08-2020 00:00 13.7 104 0 1027.5
Sant'Anna di Vinadio 08-08-2020 00:10 13.6 104 0 1027.5
Sant'Anna di Vinadio 08-08-2020 00:20 13.6 104 0 1027.5
Sant'Anna di Vinadio 08-08-2020 00:30 13.6 104 0 1027.5
Sant'Anna di Vinadio 08-08-2020 00:40 13.3 99 0 1027.5
Sant'Anna di Vinadio 08-08-2020 00:50 13 99 0 1027.4
Sant'Anna di Vinadio 08-08-2020 01:00 12.9 99 0 1027.4
Sant'Anna di Vinadio 08-08-2020 01:10 12.9 99 0 1027.4
Sant'Anna di Vinadio 08-08-2020 01:20 12.9 97 0 1027.4
Sant'Anna di Vinadio 08-08-2020 01:30 13.2 96 0 1027.3
Sant'Anna di Vinadio 08-08-2020 01:40 13.3 88 0 1027.2
Sant'Anna di Vinadio 08-08-2020 01:50 13.2 83 0 1027.2
Sant'Anna di Vinadio 08-08-2020 02:00 13.2 79 0 1027.2
Sant'Anna di Vinadio 08-08-2020 02:10 13.1 79 0 1027.2
Sant'Anna di Vinadio 08-08-2020 02:20 13.2 79 0 1027.2
Sant'Anna di Vinadio 08-08-2020 02:30 13.2 77 0 1027.1
Sant'Anna di Vinadio 08-08-2020 02:40 13.3 76 0 1026.9
Sant'Anna di Vinadio 08-08-2020 02:50 13.5 66 0 1026.9
Sant'Anna di Vinadio 08-08-2020 03:00 13.8 64 0 1026.9
Sant'Anna di Vinadio 08-08-2020 03:10 14 62 0 1026.9
Sant'Anna di Vinadio 08-08-2020 03:20 14.3 60 0 1026.9
Sant'Anna di Vinadio 08-08-2020 03:30 14.6 45 0 1026.8
Sant'Anna di Vinadio 08-08-2020 03:40 14.7 43 0 1026.7
Sant'Anna di Vinadio 08-08-2020 03:50 14.8 35 0 1026.7
Sant'Anna di Vinadio 08-08-2020 04:00 14.7 38 0 1026.6
Sant'Anna di Vinadio 08-08-2020 04:10 14.5 36 0 1026.6
Sant'Anna di Vinadio 08-08-2020 04:20 14.3 40 0 1026.6
Sant'Anna di Vinadio 08-08-2020 04:30 14.3 41 0 1026.5
Sant'Anna di Vinadio 08-08-2020 04:40 14.3 42 0 1026.5
Sant'Anna di Vinadio 08-08-2020 04:50 14.5 42 0 1026.4
Sant'Anna di Vinadio 08-08-2020 05:00 14.6 37 0 1026.4
Sant'Anna di Vinadio 08-08-2020 05:10 14.4 37 0 1026.3
Sant'Anna di Vinadio 08-08-2020 05:20 14.6 33 0 1026.2
Sant'Anna di Vinadio 08-08-2020 05:30 14.6 32 0 1026.2
Sant'Anna di Vinadio 08-08-2020 05:40 14.7 32 0 1026.3
Sant'Anna di Vinadio 08-08-2020 05:50 14.7 32 0 1026.3
Sant'Anna di Vinadio 08-08-2020 06:00 14.7 34 0 1026.3
Sant'Anna di Vinadio 08-08-2020 06:10 14.6 32 0 1026.3
Sant'Anna di Vinadio 08-08-2020 06:20 14.6 32 0 1026.2
Sant'Anna di Vinadio 08-08-2020 06:30 14.5 33 0 1026.3
Sant'Anna di Vinadio 08-08-2020 06:40 14.1 33 0 1026.3
Sant'Anna di Vinadio 08-08-2020 06:50 14.1 33 0 1026.3
Sant'Anna di Vinadio 08-08-2020 07:00 14.3 33 0 1026.4
Sant'Anna di Vinadio 08-08-2020 07:10 14.3 34 0 1026.4
Sant'Anna di Vinadio 08-08-2020 07:20 14.2 34 0 1026.4
Sant'Anna di Vinadio 08-08-2020 07:30 14.3 33 0 1026.3
Sant'Anna di Vinadio 08-08-2020 07:40 14.3 34 0 1026.4
Sant'Anna di Vinadio 08-08-2020 07:50 14 35 0 1026.5
Sant'Anna di Vinadio 08-08-2020 08:00 14.8 38 0 1026.5
Sant'Anna di Vinadio 08-08-2020 08:10 16 37 0 1026.6
Sant'Anna di Vinadio 08-08-2020 08:20 15.8 39 0 1026.6
Sant'Anna di Vinadio 08-08-2020 08:30 16.1 40 0 1026.6
Sant'Anna di Vinadio 08-08-2020 08:40 16.1 42 0 1026.6
Sant'Anna di Vinadio 08-08-2020 08:50 16.4 41 0 1026.6
Sant'Anna di Vinadio 08-08-2020 09:00 16.6 42 0 1026.6
Sant'Anna di Vinadio 08-08-2020 09:10 17.2 41 0 1026.7
Sant'Anna di Vinadio 08-08-2020 09:20 17.5 38 0 1026.6
Sant'Anna di Vinadio 08-08-2020 09:30 17.3 39 0 1026.7
Sant'Anna di Vinadio 08-08-2020 09:40 16.9 49 0 1026.6
Sant'Anna di Vinadio 08-08-2020 09:50 16.6 65 0 1026.6
Sant'Anna di Vinadio 08-08-2020 10:00 16.4 64 0 1026.7
Sant'Anna di Vinadio 08-08-2020 10:10 16.4 65 0 1026.7
Sant'Anna di Vinadio 08-08-2020 10:20 16.4 64 0 1026.6
Sant'Anna di Vinadio 08-08-2020 10:30 16.4 67 0 1026.6
Sant'Anna di Vinadio 08-08-2020 10:40 16.7 64 0 1026.7
Sant'Anna di Vinadio 08-08-2020 10:50 16.7 64 0 1026.7
Sant'Anna di Vinadio 08-08-2020 11:00 17.3 65 0 1026.7
Sant'Anna di Vinadio 08-08-2020 11:10 17.3 60 0 1026.7
Sant'Anna di Vinadio 08-08-2020 11:20 17.5 60 0 1026.7
Sant'Anna di Vinadio 08-08-2020 11:30 17.8 59 0 1026.6
Sant'Anna di Vinadio 08-08-2020 11:40 17.7 58 0 1026.6
Sant'Anna di Vinadio 08-08-2020 11:50 18.1 58 0 1026.6
Sant'Anna di Vinadio 08-08-2020 12:00 18 60 0 1026.5
Sant'Anna di Vinadio 08-08-2020 12:10 18.1 58 0 1026.6
Sant'Anna di Vinadio 08-08-2020 12:20 18.2 58 0 1026.5
Sant'Anna di Vinadio 08-08-2020 12:30 18.6 56 0 1026.5
Sant'Anna di Vinadio 08-08-2020 12:40 18.9 53 0 1026.6
Sant'Anna di Vinadio 08-08-2020 12:50 18.9 51 0 1026.5
Sant'Anna di Vinadio 08-08-2020 13:00 19.3 45 0 1026.5
Sant'Anna di Vinadio 08-08-2020 13:10 19.4 41 0 1026.5
Sant'Anna di Vinadio 08-08-2020 13:20 19.5 41 0 1026.5
Sant'Anna di Vinadio 08-08-2020 13:30 19.7 42 0 1026.5
Sant'Anna di Vinadio 08-08-2020 13:40 20 41 0 1026.4
Sant'Anna di Vinadio 08-08-2020 13:50 19.9 39 0 1026.4
Sant'Anna di Vinadio 08-08-2020 14:00 19.9 35 0 1026.4
Sant'Anna di Vinadio 08-08-2020 14:10 19.9 40 0 1026.3
Sant'Anna di Vinadio 08-08-2020 14:20 19.8 39 0 1026.3
Sant'Anna di Vinadio 08-08-2020 14:30 19.7 44 0 1026.3
Sant'Anna di Vinadio 08-08-2020 14:40 19.8 43 0 1026.3
Sant'Anna di Vinadio 08-08-2020 14:50 19.7 42 0 1026.3
Sant'Anna di Vinadio 08-08-2020 15:00 19.9 44 0 1026.3
Sant'Anna di Vinadio 08-08-2020 15:10 19.7 43 0 1026.3
Sant'Anna di Vinadio 08-08-2020 15:20 19.5 43 0 1026.3
Sant'Anna di Vinadio 08-08-2020 15:30 19.6 41 0 1026.3
Sant'Anna di Vinadio 08-08-2020 15:40 19.9 36 0 1026.2
Sant'Anna di Vinadio 08-08-2020 15:50 19.8 38 0 1026.2
Sant'Anna di Vinadio 08-08-2020 16:00 19.9 32 0 1026.2
Sant'Anna di Vinadio 08-08-2020 16:10 19.9 33 0 1026.2
Sant'Anna di Vinadio 08-08-2020 16:20 19.9 32 0 1026.2
Sant'Anna di Vinadio 08-08-2020 16:30 20 30 0 1026.3
Sant'Anna di Vinadio 08-08-2020 16:40 20.1 30 0 1026.3
Sant'Anna di Vinadio 08-08-2020 16:50 20 33 0 1026.3
Sant'Anna di Vinadio 08-08-2020 17:00 19.7 33 0 1026.2
Sant'Anna di Vinadio 08-08-2020 17:10 19.7 29 0 1026.2
Sant'Anna di Vinadio 08-08-2020 17:20 19.7 27 0 1026.2
Sant'Anna di Vinadio 08-08-2020 17:30 19.5 26 0 1026.3
Sant'Anna di Vinadio 08-08-2020 17:40 19.4 27 0 1026.3
Sant'Anna di Vinadio 08-08-2020 17:50 19.3 29 0 1026.3
Sant'Anna di Vinadio 08-08-2020 18:00 19.2 28 0 1026.3
Sant'Anna di Vinadio 08-08-2020 18:10 19.2 30 0 1026.3
Sant'Anna di Vinadio 08-08-2020 18:20 18.9 32 0 1026.3
Sant'Anna di Vinadio 08-08-2020 18:30 18.7 35 0 1026.2
Sant'Anna di Vinadio 08-08-2020 18:40 18.6 32 0 1026.2
Sant'Anna di Vinadio 08-08-2020 18:50 18.2 35 0 1026.2
Sant'Anna di Vinadio 08-08-2020 19:00 17.8 39 0 1026.2
Sant'Anna di Vinadio 08-08-2020 19:10 17.4 49 0 1026.2
Sant'Anna di Vinadio 08-08-2020 19:20 16.8 52 0 1026.3
Sant'Anna di Vinadio 08-08-2020 19:30 16.5 55 0 1026.3
Sant'Anna di Vinadio 08-08-2020 19:40 16.2 56 0 1026.4
Sant'Anna di Vinadio 08-08-2020 19:50 16.1 63 0 1026.4
Sant'Anna di Vinadio 08-08-2020 20:00 15.7 67 0 1026.4
Sant'Anna di Vinadio 08-08-2020 20:10 15.4 69 0 1026.4
Sant'Anna di Vinadio 08-08-2020 20:20 15.3 69 0 1026.4
Sant'Anna di Vinadio 08-08-2020 20:30 15.2 70 0 1026.4
Sant'Anna di Vinadio 08-08-2020 20:40 15.1 69 0 1026.5
Sant'Anna di Vinadio 08-08-2020 20:50 15.1 68 0 1026.5
Sant'Anna di Vinadio 08-08-2020 21:00 14.9 67 0 1026.6
Sant'Anna di Vinadio 08-08-2020 21:10 14.9 67 0 1026.6
Sant'Anna di Vinadio 08-08-2020 21:20 14.9 68 0 1026.7
Sant'Anna di Vinadio 08-08-2020 21:30 14.8 69 0 1026.7
Sant'Anna di Vinadio 08-08-2020 21:40 14.7 75 0 1026.8
Sant'Anna di Vinadio 08-08-2020 21:50 14.2 76 0 1026.9
Sant'Anna di Vinadio 08-08-2020 22:00 14 76 0 1027
Sant'Anna di Vinadio 08-08-2020 22:10 14.1 76 0 1027
Sant'Anna di Vinadio 08-08-2020 22:20 14.4 70 0 1027
Sant'Anna di Vinadio 08-08-2020 22:30 14.3 72 0 1027.1
Sant'Anna di Vinadio 08-08-2020 22:40 14.2 72 0 1027
Sant'Anna di Vinadio 08-08-2020 22:50 14.2 71 0 1027
Sant'Anna di Vinadio 08-08-2020 23:00 14.2 67 0 1027
Sant'Anna di Vinadio 08-08-2020 23:10 14.3 67 0 1026.9
Sant'Anna di Vinadio 08-08-2020 23:20 14.4 66 0 1026.9
Sant'Anna di Vinadio 08-08-2020 23:30 14.4 63 0 1026.9
Sant'Anna di Vinadio 08-08-2020 23:40 14.4 64 0 1026.9
Sant'Anna di Vinadio 08-08-2020 23:50 14.4 63 0 1026.9
Sant'Anna di Vinadio 09-08-2020 00:00 14.2 63 0 1026.9
Sant'Anna di Vinadio 09-08-2020 00:10 14.4 63 0 1026.9
Sant'Anna di Vinadio 09-08-2020 00:20 14.4 63 0 1026.8
Sant'Anna di Vinadio 09-08-2020 00:30 14.6 63 0 1026.8
Sant'Anna di Vinadio 09-08-2020 00:40 14.7 60 0 1026.8
Sant'Anna di Vinadio 09-08-2020 00:50 14.7 58 0 1026.8
Sant'Anna di Vinadio 09-08-2020 01:00 14.8 57 0 1026.8
Sant'Anna di Vinadio 09-08-2020 01:10 14.8 53 0 1026.7
Sant'Anna di Vinadio 09-08-2020 01:20 14.9 44 0 1026.7
Sant'Anna di Vinadio 09-08-2020 01:30 15.1 43 0 1026.6
Sant'Anna di Vinadio 09-08-2020 01:40 15.1 40 0 1026.6
Sant'Anna di Vinadio 09-08-2020 01:50 15.5 40 0 1026.5
Sant'Anna di Vinadio 09-08-2020 02:00 15.4 37 0 1026.5
Sant'Anna di Vinadio 09-08-2020 02:10 15.4 34 0 1026.4
Sant'Anna di Vinadio 09-08-2020 02:20 15.3 35 0 1026.3
Sant'Anna di Vinadio 09-08-2020 02:30 15.1 43 0 1026.3
Sant'Anna di Vinadio 09-08-2020 02:40 14.9 35 0 1026.2
Sant'Anna di Vinadio 09-08-2020 02:50 15.2 34 0 1026.2
Sant'Anna di Vinadio 09-08-2020 03:00 15.2 35 0 1026.2
Sant'Anna di Vinadio 09-08-2020 03:10 14.9 35 0 1026.1
Sant'Anna di Vinadio 09-08-2020 03:20 14.9 34 0 1026
Sant'Anna di Vinadio 09-08-2020 03:30 15.1 32 0 1026
Sant'Anna di Vinadio 09-08-2020 03:40 15.2 32 0 1026
Sant'Anna di Vinadio 09-08-2020 03:50 15.2 31 0 1025.9
Sant'Anna di Vinadio 09-08-2020 04:00 15 32 0 1026
Sant'Anna di Vinadio 09-08-2020 04:10 15.1 32 0 1026
Sant'Anna di Vinadio 09-08-2020 04:20 15 31 0 1026
Sant'Anna di Vinadio 09-08-2020 04:30 14.9 31 0 1026
Sant'Anna di Vinadio 09-08-2020 04:40 15 31 0 1026
Sant'Anna di Vinadio 09-08-2020 04:50 15 31 0 1025.9
Sant'Anna di Vinadio 09-08-2020 05:00 15 32 0 1025.9
Sant'Anna di Vinadio 09-08-2020 05:10 15 32 0 1025.8
Sant'Anna di Vinadio 09-08-2020 05:20 14.8 32 0 1025.7
Sant'Anna di Vinadio 09-08-2020 05:30 14.6 33 0 1025.7
Sant'Anna di Vinadio 09-08-2020 05:40 14.5 33 0 1025.7
Sant'Anna di Vinadio 09-08-2020 05:50 14.6 33 0 1025.7
Sant'Anna di Vinadio 09-08-2020 06:00 14.6 34 0 1025.7
Sant'Anna di Vinadio 09-08-2020 06:10 14.4 35 0 1025.7
Sant'Anna di Vinadio 09-08-2020 06:20 14.4 35 0 1025.6
Sant'Anna di Vinadio 09-08-2020 06:30 14.5 34 0 1025.8
Sant'Anna di Vinadio 09-08-2020 06:40 14.6 35 0 1025.8
Sant'Anna di Vinadio 09-08-2020 06:50 14.5 38 0 1025.8
Sant'Anna di Vinadio 09-08-2020 07:00 14.5 39 0 1025.8
Sant'Anna di Vinadio 09-08-2020 07:10 14.6 36 0 1025.8
Sant'Anna di Vinadio 09-08-2020 07:20 14.7 37 0 1025.8
Sant'Anna di Vinadio 09-08-2020 07:30 14.8 36 0 1025.8
Sant'Anna di Vinadio 09-08-2020 07:40 14.9 36 0 1025.7
Sant'Anna di Vinadio 09-08-2020 07:50 14.9 36 0 1025.7
Sant'Anna di Vinadio 09-08-2020 08:00 15.3 36 0 1025.7
Sant'Anna di Vinadio 09-08-2020 08:10 17 36 0 1025.6
Sant'Anna di Vinadio 09-08-2020 08:20 17.5 36 0 1025.6
Sant'Anna di Vinadio 09-08-2020 08:30 17.8 36 0 1025.6
Sant'Anna di Vinadio 09-08-2020 08:40 18 34 0 1025.6
Sant'Anna di Vinadio 09-08-2020 08:50 18.1 34 0 1025.6
Sant'Anna di Vinadio 09-08-2020 09:00 18.5 34 0 1025.6
Sant'Anna di Vinadio 09-08-2020 09:10 18.5 36 0 1025.6
Sant'Anna di Vinadio 09-08-2020 09:20 18.2 35 0 1025.7
Sant'Anna di Vinadio 09-08-2020 09:30 18.2 37 0 1025.6
Sant'Anna di Vinadio 09-08-2020 09:40 18.5 37 0 1025.6
Sant'Anna di Vinadio 09-08-2020 09:50 18.9 37 0 1025.6
Sant'Anna di Vinadio 09-08-2020 10:00 18.3 39 0 1025.6
Sant'Anna di Vinadio 09-08-2020 10:10 18.8 38 0 1025.5
Sant'Anna di Vinadio 09-08-2020 10:20 18.5 38 0 1025.6
Sant'Anna di Vinadio 09-08-2020 10:30 18.3 37 0 1025.6
Sant'Anna di Vinadio 09-08-2020 10:40 18.6 34 0 1025.5
Sant'Anna di Vinadio 09-08-2020 10:50 18.6 34 0 1025.5
Sant'Anna di Vinadio 09-08-2020 11:00 18.5 34 0 1025.5
Sant'Anna di Vinadio 09-08-2020 11:10 18.7 34 0 1025.5
Sant'Anna di Vinadio 09-08-2020 11:20 18.8 34 0 1025.5
Sant'Anna di Vinadio 09-08-2020 11:30 18.9 33 0 1025.5
Sant'Anna di Vinadio 09-08-2020 11:40 19.2 31 0 1025.4
Sant'Anna di Vinadio 09-08-2020 11:50 19.3 32 0 1025.3
Sant'Anna di Vinadio 09-08-2020 12:00 19.6 32 0 1025.3
Sant'Anna di Vinadio 09-08-2020 12:10 19.7 34 0 1025.3
Sant'Anna di Vinadio 09-08-2020 12:20 20 32 0 1025.3
Sant'Anna di Vinadio 09-08-2020 12:30 19.9 31 0 1025.3
Sant'Anna di Vinadio 09-08-2020 12:40 19.6 35 0 1025.3
Sant'Anna di Vinadio 09-08-2020 12:50 19.9 35 0 1025.2
Sant'Anna di Vinadio 09-08-2020 13:00 20.1 35 0 1025.2
Sant'Anna di Vinadio 09-08-2020 13:10 19.9 32 0 1025.1
Sant'Anna di Vinadio 09-08-2020 13:20 20 31 0 1025.1
Sant'Anna di Vinadio 09-08-2020 13:30 20.1 31 0 1025.1
Sant'Anna di Vinadio 09-08-2020 13:40 20.2 31 0 1025
Sant'Anna di Vinadio 09-08-2020 13:50 20.2 34 0 1024.9
Sant'Anna di Vinadio 09-08-2020 14:00 20.1 35 0 1024.9
Sant'Anna di Vinadio 09-08-2020 14:10 19.9 36 0 1024.9
Sant'Anna di Vinadio 09-08-2020 14:20 20.3 35 0 1024.9
Sant'Anna di Vinadio 09-08-2020 14:30 20.3 38 0 1024.9
Sant'Anna di Vinadio 09-08-2020 14:40 20.4 40 0 1024.9
Sant'Anna di Vinadio 09-08-2020 14:50 20.5 41 0 1024.9
Sant'Anna di Vinadio 09-08-2020 15:00 20.9 43 0 1024.8
Sant'Anna di Vinadio 09-08-2020 15:10 20.6 44 0 1024.7
Sant'Anna di Vinadio 09-08-2020 15:20 20.4 46 0 1024.7
Sant'Anna di Vinadio 09-08-2020 15:30 20.6 46 0 1024.7
Sant'Anna di Vinadio 09-08-2020 15:40 20.2 48 0 1024.7
Sant'Anna di Vinadio 09-08-2020 15:50 20.4 49 0 1024.7
Sant'Anna di Vinadio 09-08-2020 16:00 19.7 51 0 1024.7
Sant'Anna di Vinadio 09-08-2020 16:10 19 54 0 1024.7
Sant'Anna di Vinadio 09-08-2020 16:20 18.4 55 0 1024.7
Sant'Anna di Vinadio 09-08-2020 16:30 18.7 53 0 1024.8
Sant'Anna di Vinadio 09-08-2020 16:40 18.8 53 0 1024.7
Sant'Anna di Vinadio 09-08-2020 16:50 18.9 54 0 1024.8
Sant'Anna di Vinadio 09-08-2020 17:00 18.5 55 0 1024.7
Sant'Anna di Vinadio 09-08-2020 17:10 18.1 56 0 1024.7
Sant'Anna di Vinadio 09-08-2020 17:20 18.5 56 0 1024.6
Sant'Anna di Vinadio 09-08-2020 17:30 18.3 56 0 1024.6
Sant'Anna di Vinadio 09-08-2020 17:40 18.2 57 0 1024.6
Sant'Anna di Vinadio 09-08-2020 17:50 18 57 0 1024.5
Sant'Anna di Vinadio 09-08-2020 18:00 18 56 0 1024.5
Sant'Anna di Vinadio 09-08-2020 18:10 18 58 0 1024.5
Sant'Anna di Vinadio 09-08-2020 18:20 17.9 58 0 1024.5
Sant'Anna di Vinadio 09-08-2020 18:30 17.8 58 0 1024.5
Sant'Anna di Vinadio 09-08-2020 18:40 17.7 66 0 1024.5
Sant'Anna di Vinadio 09-08-2020 18:50 17.4 64 0 1024.7
Sant'Anna di Vinadio 09-08-2020 19:00 16.9 65 0.1 1024.7
Sant'Anna di Vinadio 09-08-2020 19:10 16.7 68 0 1024.6
Sant'Anna di Vinadio 09-08-2020 19:20 16.2 68 0 1024.5
Sant'Anna di Vinadio 09-08-2020 19:30 16.3 68 0 1024.4
Sant'Anna di Vinadio 09-08-2020 19:40 16.3 68 0 1024.5
Sant'Anna di Vinadio 09-08-2020 19:50 16.8 66 0 1024.5
Sant'Anna di Vinadio 09-08-2020 20:00 16.9 58 0 1024.5
Sant'Anna di Vinadio 09-08-2020 20:10 17.1 59 0 1024.5
Sant'Anna di Vinadio 09-08-2020 20:20 17.1 55 0 1024.5
Sant'Anna di Vinadio 09-08-2020 20:30 16.7 64 0.1 1024.4
Sant'Anna di Vinadio 09-08-2020 20:40 16.1 64 0 1024.5
Sant'Anna di Vinadio 09-08-2020 20:50 16.4 58 0 1024.4
Sant'Anna di Vinadio 09-08-2020 21:00 16.8 54 0 1024.3
Sant'Anna di Vinadio 09-08-2020 21:10 16.9 53 0 1024.1
Sant'Anna di Vinadio 09-08-2020 21:20 16.9 58 0 1024.2
Sant'Anna di Vinadio 09-08-2020 21:30 16.1 57 0 1024.1
Sant'Anna di Vinadio 09-08-2020 21:40 16.5 54 0 1024.1
Sant'Anna di Vinadio 09-08-2020 21:50 16.5 54 0 1024.1
Sant'Anna di Vinadio 09-08-2020 22:00 16 54 0 1024.2
Sant'Anna di Vinadio 09-08-2020 22:10 15.9 55 0 1024.2
Sant'Anna di Vinadio 09-08-2020 22:20 15.9 54 0 1024.3
Sant'Anna di Vinadio 09-08-2020 22:30 15.8 55 0 1024.3
Sant'Anna di Vinadio 09-08-2020 22:40 16 55 0 1024.3
Sant'Anna di Vinadio 09-08-2020 22:50 16.1 52 0 1024.3
Sant'Anna di Vinadio 09-08-2020 23:00 16.1 52 0 1024.4
Sant'Anna di Vinadio 09-08-2020 23:10 16.2 54 0 1024.5
Sant'Anna di Vinadio 09-08-2020 23:20 15.9 54 0 1024.4
Sant'Anna di Vinadio 09-08-2020 23:30 15.9 54 0 1024.3
Sant'Anna di Vinadio 09-08-2020 23:40 16 52 0 1024.3
Sant'Anna di Vinadio 09-08-2020 23:50 16.1 50 0 1024.3
Sant'Anna di Vinadio 10-08-2020 00:00 16.2 49 0 1024.2
Sant'Anna di Vinadio 10-08-2020 00:10 16.2 49 0 1024.3
Sant'Anna di Vinadio 10-08-2020 00:20 16 50 0 1024.2
Sant'Anna di Vinadio 10-08-2020 00:30 16 47 0 1024.3
Sant'Anna di Vinadio 10-08-2020 00:40 16.1 48 0 1024.3
Sant'Anna di Vinadio 10-08-2020 00:50 16 48 0 1024.3
Sant'Anna di Vinadio 10-08-2020 01:00 15.8 48 0 1024.3
Sant'Anna di Vinadio 10-08-2020 01:10 15.8 49 0 1024.3
Sant'Anna di Vinadio 10-08-2020 01:20 15.7 49 0 1024.2
Sant'Anna di Vinadio 10-08-2020 01:30 15.4 52 0 1024.2
Sant'Anna di Vinadio 10-08-2020 01:40 15 57 0 1024.2
Sant'Anna di Vinadio 10-08-2020 01:50 14.7 58 0 1024.2
Sant'Anna di Vinadio 10-08-2020 02:00 14.8 58 0 1024.1
Sant'Anna di Vinadio 10-08-2020 02:10 14.9 57 0 1024.1
Sant'Anna di Vinadio 10-08-2020 02:20 15 55 0 1024.1
Sant'Anna di Vinadio 10-08-2020 02:30 15.2 55 0 1024.1
Sant'Anna di Vinadio 10-08-2020 02:40 15.2 57 0 1024.1
Sant'Anna di Vinadio 10-08-2020 02:50 15.2 57 0 1024
Sant'Anna di Vinadio 10-08-2020 03:00 15.1 58 0 1024
Sant'Anna di Vinadio 10-08-2020 03:10 15 62 0 1024
Sant'Anna di Vinadio 10-08-2020 03:20 14.9 66 0 1023.9
Sant'Anna di Vinadio 10-08-2020 03:30 14.8 66 0 1023.7
Sant'Anna di Vinadio 10-08-2020 03:40 14.6 68 0 1023.7
Sant'Anna di Vinadio 10-08-2020 03:50 14.6 68 0 1023.8
Sant'Anna di Vinadio 10-08-2020 04:00 14.4 69 0 1023.8
Sant'Anna di Vinadio 10-08-2020 04:10 14.5 69 0 1023.8
Sant'Anna di Vinadio 10-08-2020 04:20 14.4 67 0 1023.8
Sant'Anna di Vinadio 10-08-2020 04:30 14.2 66 0 1023.8
Sant'Anna di Vinadio 10-08-2020 04:40 14.3 72 0 1023.8
Sant'Anna di Vinadio 10-08-2020 04:50 14.3 73 0 1023.8
Sant'Anna di Vinadio 10-08-2020 05:00 14.1 75 0 1023.8
Sant'Anna di Vinadio 10-08-2020 05:10 14.2 72 0 1023.8
Sant'Anna di Vinadio 10-08-2020 05:20 14.2 74 0 1023.7
Sant'Anna di Vinadio 10-08-2020 05:30 14.2 77 0 1023.7
Sant'Anna di Vinadio 10-08-2020 05:40 14.2 78 0 1023.6
Sant'Anna di Vinadio 10-08-2020 05:50 14.2 76 0 1023.7
Sant'Anna di Vinadio 10-08-2020 06:00 14.1 75 0 1023.6
Sant'Anna di Vinadio 10-08-2020 06:10 14.2 70 0 1023.6
Sant'Anna di Vinadio 10-08-2020 06:20 14.2 72 0 1023.6
Sant'Anna di Vinadio 10-08-2020 06:30 14.3 70 0 1023.6
Sant'Anna di Vinadio 10-08-2020 06:40 14.3 71 0 1023.6
Sant'Anna di Vinadio 10-08-2020 06:50 14.2 72 0 1023.7
Sant'Anna di Vinadio 10-08-2020 07:00 14.2 72 0 1023.7
Sant'Anna di Vinadio 10-08-2020 07:10 14.2 72 0 1023.7
Sant'Anna di Vinadio 10-08-2020 07:20 14.2 72 0 1023.8
Sant'Anna di Vinadio 10-08-2020 07:30 14.4 72 0 1023.8
Sant'Anna di Vinadio 10-08-2020 07:40 14.5 72 0 1023.8
Sant'Anna di Vinadio 10-08-2020 07:50 14.5 74 0 1023.8
Sant'Anna di Vinadio 10-08-2020 08:00 14.5 74 0 1023.7
Sant'Anna di Vinadio 10-08-2020 08:10 14.9 73 0 1023.7
Sant'Anna di Vinadio 10-08-2020 08:20 15.6 71 0 1023.7
Sant'Anna di Vinadio 10-08-2020 08:30 16.2 69 0 1023.8
Sant'Anna di Vinadio 10-08-2020 08:40 16.3 68 0 1023.7
Sant'Anna di Vinadio 10-08-2020 08:50 16.2 72 0 1023.8
Sant'Anna di Vinadio 10-08-2020 09:00 16.2 72 0 1023.9
Sant'Anna di Vinadio 10-08-2020 09:10 16 71 0 1024
Sant'Anna di Vinadio 10-08-2020 09:20 16.1 70 0 1024
Sant'Anna di Vinadio 10-08-2020 09:30 16.2 72 0 1024
Sant'Anna di Vinadio 10-08-2020 09:40 16.5 72 0 1023.9
Sant'Anna di Vinadio 10-08-2020 09:50 17 72 0 1023.9
Sant'Anna di Vinadio 10-08-2020 10:00 17 70 0 1023.9
Sant'Anna di Vinadio 10-08-2020 10:10 17.5 68 0 1023.8
Sant'Anna di Vinadio 10-08-2020 10:20 17.4 66 0 1023.8
Sant'Anna di Vinadio 10-08-2020 10:30 17.3 66 0 1023.9
Sant'Anna di Vinadio 10-08-2020 10:40 17.5 63 0 1023.9
Sant'Anna di Vinadio 10-08-2020 10:50 17.3 64 0 1023.9
Sant'Anna di Vinadio 10-08-2020 11:00 17.9 61 0 1023.9
Sant'Anna di Vinadio 10-08-2020 11:10 18.8 60 0 1023.8
Sant'Anna di Vinadio 10-08-2020 11:20 19.3 51 0 1023.9
Sant'Anna di Vinadio 10-08-2020 11:30 19.5 44 0 1023.9
Sant'Anna di Vinadio 10-08-2020 11:40 19.3 43 0 1023.9
Sant'Anna di Vinadio 10-08-2020 11:50 20.2 42 0 1024
Sant'Anna di Vinadio 10-08-2020 12:00 20.6 39 0 1023.9
Sant'Anna di Vinadio 10-08-2020 12:10 20.2 42 0 1024
Sant'Anna di Vinadio 10-08-2020 12:20 19 46 0 1024
Sant'Anna di Vinadio 10-08-2020 12:30 19.3 47 0 1023.8
Sant'Anna di Vinadio 10-08-2020 12:40 18.9 45 0 1023.8
Sant'Anna di Vinadio 10-08-2020 12:50 19 42 0 1023.8
Sant'Anna di Vinadio 10-08-2020 13:00 18.7 47 0 1023.7
Sant'Anna di Vinadio 10-08-2020 13:10 18.5 48 0 1023.8
Sant'Anna di Vinadio 10-08-2020 13:20 18.4 50 0 1023.8
Sant'Anna di Vinadio 10-08-2020 13:30 19.2 50 0 1023.8
Sant'Anna di Vinadio 10-08-2020 13:40 18.7 51 0 1023.8
Sant'Anna di Vinadio 10-08-2020 13:50 18.5 51 0 1023.8
Sant'Anna di Vinadio 10-08-2020 14:00 18.8 50 0 1023.7
Sant'Anna di Vinadio 10-08-2020 14:10 18.6 53 0 1023.8
Sant'Anna di Vinadio 10-08-2020 14:20 18.1 55 0 1023.9
Sant'Anna di Vinadio 10-08-2020 14:30 17.5 64 0.9 1024.3
Sant'Anna di Vinadio 10-08-2020 14:40 14.8 74 0.5 1024.3
Sant'Anna di Vinadio 10-08-2020 14:50 14.7 70 0.1 1024.4
Sant'Anna di Vinadio 10-08-2020 15:00 14.6 73 0 1024.9
Sant'Anna di Vinadio 10-08-2020 15:10 13.5 76 0.2 1024.9
Sant'Anna di Vinadio 10-08-2020 15:20 13.5 78 0 1024.8
Sant'Anna di Vinadio 10-08-2020 15:30 13.5 79 0.1 1024.8
Sant'Anna di Vinadio 10-08-2020 15:40 13.4 80 0.4 1024.8
Sant'Anna di Vinadio 10-08-2020 15:50 13.3 81 0.2 1024.6
Sant'Anna di Vinadio 10-08-2020 16:00 13.5 80 0.1 1024.5
Sant'Anna di Vinadio 10-08-2020 16:10 13.9 79 0.1 1024.5
Sant'Anna di Vinadio 10-08-2020 16:20 14 74 0 1024.5
Sant'Anna di Vinadio 10-08-2020 16:30 14.3 73 0.1 1024.5
Sant'Anna di Vinadio 10-08-2020 16:40 14.3 69 0.1 1024.5
Sant'Anna di Vinadio 10-08-2020 16:50 14.6 71 0 1024.4
Sant'Anna di Vinadio 10-08-2020 17:00 14.4 77 0 1024.3
Sant'Anna di Vinadio 10-08-2020 17:10 14.8 82 0.1 1024.3
Sant'Anna di Vinadio 10-08-2020 17:20 15 80 0 1024.3
Sant'Anna di Vinadio 10-08-2020 17:30 15.4 75 0 1024.3
Sant'Anna di Vinadio 10-08-2020 17:40 15.5 76 0.1 1024.2
Sant'Anna di Vinadio 10-08-2020 17:50 16.2 72 0 1024
Sant'Anna di Vinadio 10-08-2020 18:00 16.2 67 0 1023.9
Sant'Anna di Vinadio 10-08-2020 18:10 16.2 62 0 1023.9
Sant'Anna di Vinadio 10-08-2020 18:20 16.2 58 0 1023.9
Sant'Anna di Vinadio 10-08-2020 18:30 16.4 53 0 1023.9
Sant'Anna di Vinadio 10-08-2020 18:40 16.3 54 0 1023.8
Sant'Anna di Vinadio 10-08-2020 18:50 16.2 53 0 1023.8
Sant'Anna di Vinadio 10-08-2020 19:00 16.1 55 0 1023.8
Sant'Anna di Vinadio 10-08-2020 19:10 16.1 58 0 1023.8
Sant'Anna di Vinadio 10-08-2020 19:20 16.1 58 0 1023.8
Sant'Anna di Vinadio 10-08-2020 19:30 16.1 56 0 1023.9
Sant'Anna di Vinadio 10-08-2020 19:40 16.1 54 0 1023.9
Sant'Anna di Vinadio 10-08-2020 19:50 16 54 0 1024
Sant'Anna di Vinadio 10-08-2020 20:00 16 54 0 1024.1
Sant'Anna di Vinadio 10-08-2020 20:10 16.2 52 0 1024.1
Sant'Anna di Vinadio 10-08-2020 20:20 16.2 53 0 1024.1
Sant'Anna di Vinadio 10-08-2020 20:30 15.9 54 0 1024.1
Sant'Anna di Vinadio 10-08-2020 20:40 15.9 57 0 1024
Sant'Anna di Vinadio 10-08-2020 20:50 15.7 56 0 1024
Sant'Anna di Vinadio 10-08-2020 21:00 15.7 55 0 1023.9
Sant'Anna di Vinadio 10-08-2020 21:10 15.8 57 0 1024.1
Sant'Anna di Vinadio 10-08-2020 21:20 15.8 56 0 1024.1
Sant'Anna di Vinadio 10-08-2020 21:30 15.6 57 0 1024.3
Sant'Anna di Vinadio 10-08-2020 21:40 15.5 57 0 1024.4
Sant'Anna di Vinadio 10-08-2020 21:50 15.7 52 0 1024.5
Sant'Anna di Vinadio 10-08-2020 22:00 15.8 52 0 1024.5
Sant'Anna di Vinadio 10-08-2020 22:10 15.3 54 0 1024.5
Sant'Anna di Vinadio 10-08-2020 22:20 14.9 54 0 1024.5
Sant'Anna di Vinadio 10-08-2020 22:30 14.9 54 0 1024.6
Sant'Anna di Vinadio 10-08-2020 22:40 14.6 56 0 1024.6
Sant'Anna di Vinadio 10-08-2020 22:50 14.5 54 0 1024.6
Sant'Anna di Vinadio 10-08-2020 23:00 14.5 54 0 1024.6
Sant'Anna di Vinadio 10-08-2020 23:10 14.6 53 0 1024.6
Sant'Anna di Vinadio 10-08-2020 23:20 14.7 55 0 1024.6
Sant'Anna di Vinadio 10-08-2020 23:30 15 54 0 1024.6
Sant'Anna di Vinadio 10-08-2020 23:40 15.1 52 0 1024.6
Sant'Anna di Vinadio 10-08-2020 23:50 15 53 0 1024.7
Sant'Anna di Vinadio 11-08-2020 00:00 14.7 53 0 1024.6
Sant'Anna di Vinadio 11-08-2020 00:10 14.7 53 0 1024.7
Sant'Anna di Vinadio 11-08-2020 00:20 14.6 54 0 1024.7
Sant'Anna di Vinadio 11-08-2020 00:30 14.3 55 0 1024.6
Sant'Anna di Vinadio 11-08-2020 00:40 14.5 55 0 1024.6
Sant'Anna di Vinadio 11-08-2020 00:50 14.5 55 0 1024.7
Sant'Anna di Vinadio 11-08-2020 01:00 14.1 55 0 1024.7
Sant'Anna di Vinadio 11-08-2020 01:10 14.2 55 0 1024.6
Sant'Anna di Vinadio 11-08-2020 01:20 14.2 55 0 1024.5
Sant'Anna di Vinadio 11-08-2020 01:30 14.2 56 0 1024.5
Sant'Anna di Vinadio 11-08-2020 01:40 14.4 55 0 1024.4
Sant'Anna di Vinadio 11-08-2020 01:50 14.7 52 0 1024.5
Sant'Anna di Vinadio 11-08-2020 02:00 14.8 52 0 1024.3
Sant'Anna di Vinadio 11-08-2020 02:10 14.8 52 0 1024.1
Sant'Anna di Vinadio 11-08-2020 02:20 15.1 52 0 1023.9
Sant'Anna di Vinadio 11-08-2020 02:30 15.7 48 0 1023.7
Sant'Anna di Vinadio 11-08-2020 02:40 15.7 47 0 1023.8
Sant'Anna di Vinadio 11-08-2020 02:50 15.3 48 0 1023.8
Sant'Anna di Vinadio 11-08-2020 03:00 15.1 49 0 1023.6
Sant'Anna di Vinadio 11-08-2020 03:10 15 48 0 1023.6
Sant'Anna di Vinadio 11-08-2020 03:20 15 48 0 1023.6
Sant'Anna di Vinadio 11-08-2020 03:30 14.9 49 0 1023.5
Sant'Anna di Vinadio 11-08-2020 03:40 15.1 48 0 1023.4
Sant'Anna di Vinadio 11-08-2020 03:50 15.1 47 0 1023.3
Sant'Anna di Vinadio 11-08-2020 04:00 15.2 47 0 1023.4
Sant'Anna di Vinadio 11-08-2020 04:10 15 49 0 1023.4
Sant'Anna di Vinadio 11-08-2020 04:20 15.1 49 0 1023.4
Sant'Anna di Vinadio 11-08-2020 04:30 15.4 47 0 1023.3
Sant'Anna di Vinadio 11-08-2020 04:40 15.5 46 0 1023.3
Sant'Anna di Vinadio 11-08-2020 04:50 15.6 46 0 1023.3
Sant'Anna di Vinadio 11-08-2020 05:00 15.6 46 0 1023.3
Sant'Anna di Vinadio 11-08-2020 05:10 15.5 46 0 1023.4
Sant'Anna di Vinadio 11-08-2020 05:20 15.4 46 0 1023.5
Sant'Anna di Vinadio 11-08-2020 05:30 15.4 48 0 1023.5
Sant'Anna di Vinadio 11-08-2020 05:40 15.2 48 0 1023.5
Sant'Anna di Vinadio 11-08-2020 05:50 15.1 49 0 1023.5
Sant'Anna di Vinadio 11-08-2020 06:00 14.8 50 0 1023.5
Sant'Anna di Vinadio 11-08-2020 06:10 14.8 50 0 1023.6
Sant'Anna di Vinadio 11-08-2020 06:20 14.8 50 0 1023.6
Sant'Anna di Vinadio 11-08-2020 06:30 14.7 51 0 1023.7
Sant'Anna di Vinadio 11-08-2020 06:40 14.5 52 0 1023.7
Sant'Anna di Vinadio 11-08-2020 06:50 14.5 52 0 1023.7
Sant'Anna di Vinadio 11-08-2020 07:00 14.4 53 0 1023.7
Sant'Anna di Vinadio 11-08-2020 07:10 14.6 52 0 1023.7
Sant'Anna di Vinadio 11-08-2020 07:20 14.7 52 0 1023.6
Sant'Anna di Vinadio 11-08-2020 07:30 14.8 52 0 1023.7
Sant'Anna di Vinadio 11-08-2020 07:40 14.9 52 0 1023.8
Sant'Anna di Vinadio 11-08-2020 07:50 14.9 54 0 1023.9
Sant'Anna di Vinadio 11-08-2020 08:00 14.6 55 0 1024
Sant'Anna di Vinadio 11-08-2020 08:10 14.7 55 0 1024
Sant'Anna di Vinadio 11-08-2020 08:20 14.9 54 0 1024
Sant'Anna di Vinadio 11-08-2020 08:30 15.8 53 0 1024
Sant'Anna di Vinadio 11-08-2020 08:40 16 51 0 1024
Sant'Anna di Vinadio 11-08-2020 08:50 15.8 51 0 1024.1
Sant'Anna di Vinadio 11-08-2020 09:00 15.8 51 0 1024.1
Sant'Anna di Vinadio 11-08-2020 09:10 16.4 52 0 1024.1
Sant'Anna di Vinadio 11-08-2020 09:20 16.9 52 0 1024.1
Sant'Anna di Vinadio 11-08-2020 09:30 16.8 52 0 1024.1
Sant'Anna di Vinadio 11-08-2020 09:40 17.2 50 0 1024.1
Sant'Anna di Vinadio 11-08-2020 09:50 17.4 49 0 1024.1
Sant'Anna di Vinadio 11-08-2020 10:00 17.9 48 0 1024.2
Sant'Anna di Vinadio 11-08-2020 10:10 17.8 47 0 1024.2
Sant'Anna di Vinadio 11-08-2020 10:20 18.3 47 0 1024.2
Sant'Anna di Vinadio 11-08-2020 10:30 18.5 44 0 1024.2
Sant'Anna di Vinadio 11-08-2020 10:40 18.5 43 0 1024.2
Sant'Anna di Vinadio 11-08-2020 10:50 18.9 43 0 1024.2
Sant'Anna di Vinadio 11-08-2020 11:00 18.8 42 0 1024.2
Sant'Anna di Vinadio 11-08-2020 11:10 18.9 43 0 1024.3
Sant'Anna di Vinadio 11-08-2020 11:20 18.9 43 0 1024.3
Sant'Anna di Vinadio 11-08-2020 11:30 18.9 43 0 1024.3
Sant'Anna di Vinadio 11-08-2020 11:40 18.8 44 0 1024.3
Sant'Anna di Vinadio 11-08-2020 11:50 18.7 44 0 1024.3
Sant'Anna di Vinadio 11-08-2020 12:00 19.3 44 0 1024.3
Sant'Anna di Vinadio 11-08-2020 12:10 19.5 43 0 1024.4
Sant'Anna di Vinadio 11-08-2020 12:20 20.1 43 0 1024.5
Sant'Anna di Vinadio 11-08-2020 12:30 19.5 42 0 1024.5
Sant'Anna di Vinadio 11-08-2020 12:40 18.8 50 0 1024.5
Sant'Anna di Vinadio 11-08-2020 12:50 17.4 52 0 1024.5
Sant'Anna di Vinadio 11-08-2020 13:00 17.2 56 0 1024.6
Sant'Anna di Vinadio 11-08-2020 13:10 17 57 0 1024.6
Sant'Anna di Vinadio 11-08-2020 13:20 17.3 56 0 1024.6
Sant'Anna di Vinadio 11-08-2020 13:30 17.4 56 0 1024.6
Sant'Anna di Vinadio 11-08-2020 13:40 17.7 56 0 1024.6
Sant'Anna di Vinadio 11-08-2020 13:50 17.1 57 0 1024.7
Sant'Anna di Vinadio 11-08-2020 14:00 17.1 59 0 1024.7
Sant'Anna di Vinadio 11-08-2020 14:10 17.8 58 0 1024.6
Sant'Anna di Vinadio 11-08-2020 14:20 17.8 55 0 1024.6
Sant'Anna di Vinadio 11-08-2020 14:30 17.1 55 0 1024.6
Sant'Anna di Vinadio 11-08-2020 14:40 17.4 56 0 1024.6
Sant'Anna di Vinadio 11-08-2020 14:50 17.6 55 0 1024.5
Sant'Anna di Vinadio 11-08-2020 15:00 17.3 56 0 1024.5
Sant'Anna di Vinadio 11-08-2020 15:10 18.2 55 0 1024.4
Sant'Anna di Vinadio 11-08-2020 15:20 18.8 54 0 1024.4
Sant'Anna di Vinadio 11-08-2020 15:30 18.4 55 0 1024.4
Sant'Anna di Vinadio 11-08-2020 15:40 17.5 56 0 1024.4
Sant'Anna di Vinadio 11-08-2020 15:50 18.2 56 0 1024.4
Sant'Anna di Vinadio 11-08-2020 16:00 18.6 52 0 1024.4
Sant'Anna di Vinadio 11-08-2020 16:10 18.6 52 0 1024.5
Sant'Anna di Vinadio 11-08-2020 16:20 19 52 0 1024.4
Sant'Anna di Vinadio 11-08-2020 16:30 18.9 53 0 1024.3
Sant'Anna di Vinadio 11-08-2020 16:40 18.6 56 0 1024.3
Sant'Anna di Vinadio 11-08-2020 16:50 18.4 55 0 1024.2
Sant'Anna di Vinadio 11-08-2020 17:00 18.2 61 0 1024.2
Sant'Anna di Vinadio 11-08-2020 17:10 17.5 61 0 1024.2
Sant'Anna di Vinadio 11-08-2020 17:20 18.2 60 0 1024.2
Sant'Anna di Vinadio 11-08-2020 17:30 18.4 57 0 1024.1
Sant'Anna di Vinadio 11-08-2020 17:40 17.8 62 0 1024.1
Sant'Anna di Vinadio 11-08-2020 17:50 18 60 0 1024.1
Sant'Anna di Vinadio 11-08-2020 18:00 18 61 0 1024.1
Sant'Anna di Vinadio 11-08-2020 18:10 18.6 61 0 1024.2
Sant'Anna di Vinadio 11-08-2020 18:20 18.5 62 0 1024.2
Sant'Anna di Vinadio 11-08-2020 18:30 17.4 63 0 1024.3
Sant'Anna di Vinadio 11-08-2020 18:40 17.3 60 0 1024.3
Sant'Anna di Vinadio 11-08-2020 18:50 17 61 0 1024.3
Sant'Anna di Vinadio 11-08-2020 19:00 16.6 62 0 1024.3
Sant'Anna di Vinadio 11-08-2020 19:10 16.5 65 0 1024.3
Sant'Anna di Vinadio 11-08-2020 19:20 16.2 65 0 1024.2
Sant'Anna di Vinadio 11-08-2020 19:30 16.4 66 0 1024.3
Sant'Anna di Vinadio 11-08-2020 19:40 16.3 65 0 1024.3
Sant'Anna di Vinadio 11-08-2020 19:50 16 68 0 1024.3
Sant'Anna di Vinadio 11-08-2020 20:00 15.7 68 0 1024.3
Sant'Anna di Vinadio 11-08-2020 20:10 15.8 68 0 1024.3
Sant'Anna di Vinadio 11-08-2020 20:20 15.5 69 0 1024.3
Sant'Anna di Vinadio 11-08-2020 20:30 15.8 69 0 1024.3
Sant'Anna di Vinadio 11-08-2020 20:40 15.4 70 0 1024.3
Sant'Anna di Vinadio 11-08-2020 20:50 15.9 69 0 1024.4
Sant'Anna di Vinadio 11-08-2020 21:00 15.9 67 0 1024.4
Sant'Anna di Vinadio 11-08-2020 21:10 15.8 67 0 1024.4
Sant'Anna di Vinadio 11-08-2020 21:20 15.9 67 0 1024.4
Sant'Anna di Vinadio 11-08-2020 21:30 16.1 65 0 1024.6
Sant'Anna di Vinadio 11-08-2020 21:40 16.2 65 0 1024.6
Sant'Anna di Vinadio 11-08-2020 21:50 16.3 64 0 1024.7
Sant'Anna di Vinadio 11-08-2020 22:00 16.3 64 0 1024.7
Sant'Anna di Vinadio 11-08-2020 22:10 16.3 64 0 1024.8
Sant'Anna di Vinadio 11-08-2020 22:20 16.4 63 0 1024.9
Sant'Anna di Vinadio 11-08-2020 22:30 16.4 65 0 1024.9
Sant'Anna di Vinadio 11-08-2020 22:40 16 66 0 1024.9
Sant'Anna di Vinadio 11-08-2020 22:50 16 65 0 1024.9
Sant'Anna di Vinadio 11-08-2020 23:00 16.2 64 0 1024.8
Sant'Anna di Vinadio 11-08-2020 23:10 16.3 62 0 1024.8
Sant'Anna di Vinadio 11-08-2020 23:20 16.3 62 0 1024.8
Sant'Anna di Vinadio 11-08-2020 23:30 15.9 63 0 1024.9
Sant'Anna di Vinadio 11-08-2020 23:40 15.9 63 0 1024.8
Sant'Anna di Vinadio 11-08-2020 23:50 16.2 62 0 1024.8
Sant'Anna di Vinadio 12-08-2020 00:00 16.3 60 0 1024.8
Sant'Anna di Vinadio 12-08-2020 00:10 16.3 58 0 1024.8
Sant'Anna di Vinadio 12-08-2020 00:20 15.9 59 0 1024.8
Sant'Anna di Vinadio 12-08-2020 00:30 15.8 60 0 1024.8
Sant'Anna di Vinadio 12-08-2020 00:40 15.6 60 0 1024.8
Sant'Anna di Vinadio 12-08-2020 00:50 15.4 62 0 1024.9
Sant'Anna di Vinadio 12-08-2020 01:00 15.2 64 0 1024.9
Sant'Anna di Vinadio 12-08-2020 01:10 14.9 65 0 1024.9
Sant'Anna di Vinadio 12-08-2020 01:20 15.1 63 0 1024.8
Sant'Anna di Vinadio 12-08-2020 01:30 14.9 62 0 1024.8
Sant'Anna di Vinadio 12-08-2020 01:40 15.2 60 0 1024.8
Sant'Anna di Vinadio 12-08-2020 01:50 15.3 58 0 1024.8
Sant'Anna di Vinadio 12-08-2020 02:00 15.2 60 0 1024.8
Sant'Anna di Vinadio 12-08-2020 02:10 15 61 0 1024.8
Sant'Anna di Vinadio 12-08-2020 02:20 15 58 0 1024.8
Sant'Anna di Vinadio 12-08-2020 02:30 15 59 0 1024.7
Sant'Anna di Vinadio 12-08-2020 02:40 15.3 57 0 1024.7
Sant'Anna di Vinadio 12-08-2020 02:50 15.3 55 0 1024.7
Sant'Anna di Vinadio 12-08-2020 03:00 15.3 57 0 1024.6
Sant'Anna di Vinadio 12-08-2020 03:10 15.4 56 0 1024.5
Sant'Anna di Vinadio 12-08-2020 03:20 15.7 55 0 1024.4
Sant'Anna di Vinadio 12-08-2020 03:30 15.9 52 0 1024.3
Sant'Anna di Vinadio 12-08-2020 03:40 16 51 0 1024.2
Sant'Anna di Vinadio 12-08-2020 03:50 16 52 0 1024.2
Sant'Anna di Vinadio 12-08-2020 04:00 15.6 53 0 1024.3
Sant'Anna di Vinadio 12-08-2020 04:10 15.4 54 0 1024.3
Sant'Anna di Vinadio 12-08-2020 04:20 15.4 53 0 1024.2
Sant'Anna di Vinadio 12-08-2020 04:30 15.3 53 0 1024.2
Sant'Anna di Vinadio 12-08-2020 04:40 15.6 53 0 1024.2
Sant'Anna di Vinadio 12-08-2020 04:50 15.6 53 0 1024.2
Sant'Anna di Vinadio 12-08-2020 05:00 15.5 53 0 1024.2
Sant'Anna di Vinadio 12-08-2020 05:10 15.5 54 0 1024.2
Sant'Anna di Vinadio 12-08-2020 05:20 15.2 55 0 1024.2
Sant'Anna di Vinadio 12-08-2020 05:30 15.3 55 0 1024.2
Sant'Anna di Vinadio 12-08-2020 05:40 15.1 55 0 1024.2
Sant'Anna di Vinadio 12-08-2020 05:50 15.1 56 0 1024.1
Sant'Anna di Vinadio 12-08-2020 06:00 15.4 55 0 1024
Sant'Anna di Vinadio 12-08-2020 06:10 15.5 55 0 1024
Sant'Anna di Vinadio 12-08-2020 06:20 15.4 55 0 1024
Sant'Anna di Vinadio 12-08-2020 06:30 15.3 56 0 1024.1
Sant'Anna di Vinadio 12-08-2020 06:40 15.2 56 0 1024.1
Sant'Anna di Vinadio 12-08-2020 06:50 14.9 59 0 1024.2
Sant'Anna di Vinadio 12-08-2020 07:00 14.3 60 0 1024.3
Sant'Anna di Vinadio 12-08-2020 07:10 14.1 62 0 1024.3
Sant'Anna di Vinadio 12-08-2020 07:20 14 63 0 1024.3
Sant'Anna di Vinadio 12-08-2020 07:30 14 64 0 1024.3
Sant'Anna di Vinadio 12-08-2020 07:40 14.2 64 0 1024.4
Sant'Anna di Vinadio 12-08-2020 07:50 14.2 64 0 1024.5
Sant'Anna di Vinadio 12-08-2020 08:00 14.2 65 0 1024.5
Sant'Anna di Vinadio 12-08-2020 08:10 15.5 64 0 1024.5
Sant'Anna di Vinadio 12-08-2020 08:20 15.9 60 0 1024.6
Sant'Anna di Vinadio 12-08-2020 08:30 16.4 59 0 1024.6
Sant'Anna di Vinadio 12-08-2020 08:40 17.1 57 0 1024.5
Sant'Anna di Vinadio 12-08-2020 08:50 17.7 56 0 1024.5
Sant'Anna di Vinadio 12-08-2020 09:00 17.7 55 0 1024.4
Sant'Anna di Vinadio 12-08-2020 09:10 18.1 56 0 1024.4
Sant'Anna di Vinadio 12-08-2020 09:20 18.5 55 0 1024.3
Sant'Anna di Vinadio 12-08-2020 09:30 18.1 51 0 1024.4
Sant'Anna di Vinadio 12-08-2020 09:40 18.1 53 0 1024.5
Sant'Anna di Vinadio 12-08-2020 09:50 17.6 56 0 1024.5
Sant'Anna di Vinadio 12-08-2020 10:00 17.6 55 0 1024.5
Sant'Anna di Vinadio 12-08-2020 10:10 18.5 53 0 1024.6
Sant'Anna di Vinadio 12-08-2020 10:20 18.7 51 0 1024.6
Sant'Anna di Vinadio 12-08-2020 10:30 18.6 53 0 1024.6
Sant'Anna di Vinadio 12-08-2020 10:40 18.7 51 0 1024.7
Sant'Anna di Vinadio 12-08-2020 10:50 19.1 50 0 1024.6
Sant'Anna di Vinadio 12-08-2020 11:00 19.2 49 0 1024.6
Sant'Anna di Vinadio 12-08-2020 11:10 19 48 0 1024.7
Sant'Anna di Vinadio 12-08-2020 11:20 19.8 47 0 1024.7
Sant'Anna di Vinadio 12-08-2020 11:30 19.7 44 0 1024.7
Sant'Anna di Vinadio 12-08-2020 11:40 19.7 44 0 1024.7
Sant'Anna di Vinadio 12-08-2020 11:50 19.9 45 0 1024.7
Sant'Anna di Vinadio 12-08-2020 12:00 19.7 44 0 1024.8
Sant'Anna di Vinadio 12-08-2020 12:10 19.7 49 0 1024.9
Sant'Anna di Vinadio 12-08-2020 12:20 20.1 49 0 1025
Sant'Anna di Vinadio 12-08-2020 12:30 20.2 51 0 1024.9
Sant'Anna di Vinadio 12-08-2020 12:40 19.9 49 0 1024.8
Sant'Anna di Vinadio 12-08-2020 12:50 20.2 49 0 1024.7
Sant'Anna di Vinadio 12-08-2020 13:00 20 47 0 1024.6
Sant'Anna di Vinadio 12-08-2020 13:10 20.1 45 0 1024.7
Sant'Anna di Vinadio 12-08-2020 13:20 20 46 0 1024.8
Sant'Anna di Vinadio 12-08-2020 13:30 20 48 0 1024.7
Sant'Anna di Vinadio 12-08-2020 13:40 19.7 48 0 1024.7
Sant'Anna di Vinadio 12-08-2020 13:50 20.1 48 0 1024.9
Sant'Anna di Vinadio 12-08-2020 14:00 20.6 48 0 1024.9
Sant'Anna di Vinadio 12-08-2020 14:10 20.6 46 0 1024.9
Sant'Anna di Vinadio 12-08-2020 14:20 20.9 46 0 1024.9
Sant'Anna di Vinadio 12-08-2020 14:30 20.5 46 0 1024.9
Sant'Anna di Vinadio 12-08-2020 14:40 20.7 46 0 1024.9
Sant'Anna di Vinadio 12-08-2020 14:50 20.8 46 0 1024.9
Sant'Anna di Vinadio 12-08-2020 15:00 20.7 46 0 1024.7
Sant'Anna di Vinadio 12-08-2020 15:10 20.7 44 0 1024.7
Sant'Anna di Vinadio 12-08-2020 15:20 20.9 44 0 1024.6
Sant'Anna di Vinadio 12-08-2020 15:30 20.7 44 0 1024.5
Sant'Anna di Vinadio 12-08-2020 15:40 21.1 45 0 1024.5
Sant'Anna di Vinadio 12-08-2020 15:50 21.4 42 0 1024.4
Sant'Anna di Vinadio 12-08-2020 16:00 21.3 44 0 1024.4
Sant'Anna di Vinadio 12-08-2020 16:10 20.4 49 0 1024.4
Sant'Anna di Vinadio 12-08-2020 16:20 19.5 51 0 1024.3
Sant'Anna di Vinadio 12-08-2020 16:30 19.3 54 0 1024.3
Sant'Anna di Vinadio 12-08-2020 16:40 19.3 55 0 1024.3
Sant'Anna di Vinadio 12-08-2020 16:50 18.9 58 0 1024.3
Sant'Anna di Vinadio 12-08-2020 17:00 18.4 62 0 1024.3
Sant'Anna di Vinadio 12-08-2020 17:10 17.7 63 0 1024.3
Sant'Anna di Vinadio 12-08-2020 17:20 17.8 63 0 1024.2
Sant'Anna di Vinadio 12-08-2020 17:30 18 61 0 1024.2
Sant'Anna di Vinadio 12-08-2020 17:40 18 62 0.1 1024.4
Sant'Anna di Vinadio 12-08-2020 17:50 17.7 65 0 1024.3
Sant'Anna di Vinadio 12-08-2020 18:00 17.7 71 0 1024.3
Sant'Anna di Vinadio 12-08-2020 18:10 17 76 0 1024.2
Sant'Anna di Vinadio 12-08-2020 18:20 17.2 70 0 1023.9
Sant'Anna di Vinadio 12-08-2020 18:30 17.1 67 0 1023.9
Sant'Anna di Vinadio 12-08-2020 18:40 17.1 65 0 1023.7
Sant'Anna di Vinadio 12-08-2020 18:50 17 65 0 1023.8
Sant'Anna di Vinadio 12-08-2020 19:00 17 62 0 1024
Sant'Anna di Vinadio 12-08-2020 19:10 17.1 62 0 1023.9
Sant'Anna di Vinadio 12-08-2020 19:20 17 61 0 1023.9
Sant'Anna di Vinadio 12-08-2020 19:30 17 59 0 1023.9
Sant'Anna di Vinadio 12-08-2020 19:40 17.1 58 0 1023.9
Sant'Anna di Vinadio 12-08-2020 19:50 17.1 57 0 1023.9
Sant'Anna di Vinadio 12-08-2020 20:00 17.1 56 0 1024.1
Sant'Anna di Vinadio 12-08-2020 20:10 17.1 56 0 1024.1
Sant'Anna di Vinadio 12-08-2020 20:20 17 58 0 1024.3
Sant'Anna di Vinadio 12-08-2020 20:30 17 60 0 1024.4
Sant'Anna di Vinadio 12-08-2020 20:40 16.7 63 0 1024.4
Sant'Anna di Vinadio 12-08-2020 20:50 16.4 64 0 1024.5
Sant'Anna di Vinadio 12-08-2020 21:00 16.4 63 0 1024.5
Sant'Anna di Vinadio 12-08-2020 21:10 16.2 63 0 1024.5
Sant'Anna di Vinadio 12-08-2020 21:20 16.1 64 0 1024.5
Sant'Anna di Vinadio 12-08-2020 21:30 16 80 0 1024.6
Sant'Anna di Vinadio 12-08-2020 21:40 15.1 96 0 1024.6
Sant'Anna di Vinadio 12-08-2020 21:50 14.7 104 0 1024.7
Sant'Anna di Vinadio 12-08-2020 22:00 14.3 104 0 1024.8
Sant'Anna di Vinadio 12-08-2020 22:10 14.2 104 0 1024.9
Sant'Anna di Vinadio 12-08-2020 22:20 14 104 0 1024.9
Sant'Anna di Vinadio 12-08-2020 22:30 13.8 104 0 1024.8
Sant'Anna di Vinadio 12-08-2020 22:40 13.6 104 0 1024.8
Sant'Anna di Vinadio 12-08-2020 22:50 13.6 104 0 1024.7
Sant'Anna di Vinadio 12-08-2020 23:00 13.4 104 0 1024.7
Sant'Anna di Vinadio 12-08-2020 23:10 13.8 104 0 1024.6
Sant'Anna di Vinadio 12-08-2020 23:20 14.4 104 0 1024.5
Sant'Anna di Vinadio 12-08-2020 23:30 14.8 100 0 1024.5
Sant'Anna di Vinadio 12-08-2020 23:40 14.8 94 0 1024.4
Sant'Anna di Vinadio 12-08-2020 23:50 15.3 85 0 1024.4
Sant'Anna di Vinadio 13-08-2020 00:00 15.4 67 0 1024.4
Sant'Anna di Vinadio 13-08-2020 00:10 15.5 59 0 1024.4
Sant'Anna di Vinadio 13-08-2020 00:20 15.5 58 0 1024.5
Sant'Anna di Vinadio 13-08-2020 00:30 15.5 58 0 1024.5
Sant'Anna di Vinadio 13-08-2020 00:40 15.4 60 0 1024.5
Sant'Anna di Vinadio 13-08-2020 00:50 15.3 63 0 1024.5
Sant'Anna di Vinadio 13-08-2020 01:00 15.2 66 0 1024.5
Sant'Anna di Vinadio 13-08-2020 01:10 15.1 66 0 1024.6
Sant'Anna di Vinadio 13-08-2020 01:20 15 65 0 1024.6
Sant'Anna di Vinadio 13-08-2020 01:30 15 66 0 1024.5
Sant'Anna di Vinadio 13-08-2020 01:40 14.8 65 0 1024.5
Sant'Anna di Vinadio 13-08-2020 01:50 14.8 66 0 1024.5
Sant'Anna di Vinadio 13-08-2020 02:00 14.8 63 0 1024.4
Sant'Anna di Vinadio 13-08-2020 02:10 14.7 62 0 1024.4
Sant'Anna di Vinadio 13-08-2020 02:20 14.7 61 0 1024.3
Sant'Anna di Vinadio 13-08-2020 02:30 14.7 61 0 1024.3
Sant'Anna di Vinadio 13-08-2020 02:40 14.4 63 0 1024.3
Sant'Anna di Vinadio 13-08-2020 02:50 14.3 63 0 1024.2
Sant'Anna di Vinadio 13-08-2020 03:00 14.1 64 0 1024.1
Sant'Anna di Vinadio 13-08-2020 03:10 14.1 63 0 1024.1
Sant'Anna di Vinadio 13-08-2020 03:20 14.2 60 0 1024.2
Sant'Anna di Vinadio 13-08-2020 03:30 14.3 58 0 1024.3
Sant'Anna di Vinadio 13-08-2020 03:40 14.2 59 0 1024.2
Sant'Anna di Vinadio 13-08-2020 03:50 14 59 0 1024.1
Sant'Anna di Vinadio 13-08-2020 04:00 14 60 0 1024.1
Sant'Anna di Vinadio 13-08-2020 04:10 14.1 59 0 1024.1
Sant'Anna di Vinadio 13-08-2020 04:20 14.1 61 0 1023.8
Sant'Anna di Vinadio 13-08-2020 04:30 13.8 63 0 1023.8
Sant'Anna di Vinadio 13-08-2020 04:40 13.9 61 0 1023.7
Sant'Anna di Vinadio 13-08-2020 04:50 13.9 56 0 1023.6
Sant'Anna di Vinadio 13-08-2020 05:00 14 54 0 1023.6
Sant'Anna di Vinadio 13-08-2020 05:10 13.9 54 0 1023.8
Sant'Anna di Vinadio 13-08-2020 05:20 13.9 53 0 1023.7
Sant'Anna di Vinadio 13-08-2020 05:30 13.9 53 0 1023.8
Sant'Anna di Vinadio 13-08-2020 05:40 13.9 53 0 1023.6
Sant'Anna di Vinadio 13-08-2020 05:50 13.8 54 0 1023.6
Sant'Anna di Vinadio 13-08-2020 06:00 13.7 54 0 1023.5
Sant'Anna di Vinadio 13-08-2020 06:10 13.6 54 0 1023.5
Sant'Anna di Vinadio 13-08-2020 06:20 13.6 53 0 1023.5
Sant'Anna di Vinadio 13-08-2020 06:30 13.5 56 0 1023.5
Sant'Anna di Vinadio 13-08-2020 06:40 13.5 55 0 1023.5
Sant'Anna di Vinadio 13-08-2020 06:50 13.5 55 0 1023.6
Sant'Anna di Vinadio 13-08-2020 07:00 13.5 56 0 1023.4
Sant'Anna di Vinadio 13-08-2020 07:10 13.3 56 0 1023.4
Sant'Anna di Vinadio 13-08-2020 07:20 13.3 56 0 1023.4
Sant'Anna di Vinadio 13-08-2020 07:30 13.3 56 0 1023.4
Sant'Anna di Vinadio 13-08-2020 07:40 13.3 56 0 1023.5
Sant'Anna di Vinadio 13-08-2020 07:50 13.4 56 0 1023.5
Sant'Anna di Vinadio 13-08-2020 08:00 13.5 54 0 1023.6
Sant'Anna di Vinadio 13-08-2020 08:10 13.6 54 0 1023.6
Sant'Anna di Vinadio 13-08-2020 08:20 13.8 52 0 1023.7
Sant'Anna di Vinadio 13-08-2020 08:30 13.9 52 0 1023.7
Sant'Anna di Vinadio 13-08-2020 08:40 14.1 52 0 1023.7
Sant'Anna di Vinadio 13-08-2020 08:50 14.2 52 0 1023.8
Sant'Anna di Vinadio 13-08-2020 09:00 14.3 52 0 1023.8
Sant'Anna di Vinadio 13-08-2020 09:10 14.3 52 0 1023.9
Sant'Anna di Vinadio 13-08-2020 09:20 14.5 52 0 1023.9
Sant'Anna di Vinadio 13-08-2020 09:30 15.2 53 0 1023.9
Sant'Anna di Vinadio 13-08-2020 09:40 15.3 51 0 1023.8
Sant'Anna di Vinadio 13-08-2020 09:50 15.2 52 0 1023.8
Sant'Anna di Vinadio 13-08-2020 10:00 15.9 52 0 1023.8
Sant'Anna di Vinadio 13-08-2020 10:10 16.1 51 0 1023.9
Sant'Anna di Vinadio 13-08-2020 10:20 15.8 52 0 1023.9
Sant'Anna di Vinadio 13-08-2020 10:30 15.8 52 0 1023.9
Sant'Anna di Vinadio 13-08-2020 10:40 15.7 53 0 1024
Sant'Anna di Vinadio 13-08-2020 10:50 15.2 54 0 1024
Sant'Anna di Vinadio 13-08-2020 11:00 15.2 54 0 1024
Sant'Anna di Vinadio 13-08-2020 11:10 15.2 54 0 1024.1
Sant'Anna di Vinadio 13-08-2020 11:20 16.7 54 0 1024
Sant'Anna di Vinadio 13-08-2020 11:30 16.5 51 0 1023.9
Sant'Anna di Vinadio 13-08-2020 11:40 16.5 52 0 1024
Sant'Anna di Vinadio 13-08-2020 11:50 16.8 50 0 1024
Sant'Anna di Vinadio 13-08-2020 12:00 17.2 48 0 1024.1
Sant'Anna di Vinadio 13-08-2020 12:10 16.2 49 0 1024
Sant'Anna di Vinadio 13-08-2020 12:20 16 50 0 1024.1
Sant'Anna di Vinadio 13-08-2020 12:30 16 53 0 1023.9
Sant'Anna di Vinadio 13-08-2020 12:40 17 52 0 1023.8
Sant'Anna di Vinadio 13-08-2020 12:50 16.3 50 0 1023.8
Sant'Anna di Vinadio 13-08-2020 13:00 16.6 50 0 1023.7
Sant'Anna di Vinadio 13-08-2020 13:10 16.6 48 0 1023.7
Sant'Anna di Vinadio 13-08-2020 13:20 16.9 47 0 1023.7
Sant'Anna di Vinadio 13-08-2020 13:30 16.4 48 0 1023.5
Sant'Anna di Vinadio 13-08-2020 13:40 16.1 48 0 1023.6
Sant'Anna di Vinadio 13-08-2020 13:50 16.1 49 0 1023.6
Sant'Anna di Vinadio 13-08-2020 14:00 15.9 68 2.8 1024.4
Sant'Anna di Vinadio 13-08-2020 14:10 13.3 74 0.3 1024
Sant'Anna di Vinadio 13-08-2020 14:20 13.9 72 0 1023.8
Sant'Anna di Vinadio 13-08-2020 14:30 14 66 0.1 1023.8
Sant'Anna di Vinadio 13-08-2020 14:40 14 66 0.5 1024.2
Sant'Anna di Vinadio 13-08-2020 14:50 13.2 71 0.3 1024.1
Sant'Anna di Vinadio 13-08-2020 15:00 13.2 71 0 1023.9
Sant'Anna di Vinadio 13-08-2020 15:10 13.8 66 0 1023.8
Sant'Anna di Vinadio 13-08-2020 15:20 14.5 62 0.1 1023.7
Sant'Anna di Vinadio 13-08-2020 15:30 14.6 62 0 1023.5
Sant'Anna di Vinadio 13-08-2020 15:40 15 63 0 1023.4
Sant'Anna di Vinadio 13-08-2020 15:50 14.8 61 0 1023.4
Sant'Anna di Vinadio 13-08-2020 16:00 14.7 61 0 1023.4
Sant'Anna di Vinadio 13-08-2020 16:10 14.7 62 0.1 1023.2
Sant'Anna di Vinadio 13-08-2020 16:20 14.7 62 0 1023.4
Sant'Anna di Vinadio 13-08-2020 16:30 14.8 63 0 1023.4
Sant'Anna di Vinadio 13-08-2020 16:40 15 62 0 1023.4
Sant'Anna di Vinadio 13-08-2020 16:50 15 62 0 1023.2
Sant'Anna di Vinadio 13-08-2020 17:00 14.7 68 0.2 1023.4
Sant'Anna di Vinadio 13-08-2020 17:10 13.9 78 0.9 1023.4
Sant'Anna di Vinadio 13-08-2020 17:20 13.2 78 0.1 1023.3
Sant'Anna di Vinadio 13-08-2020 17:30 13.5 74 0.1 1023.2
Sant'Anna di Vinadio 13-08-2020 17:40 13.5 70 0 1023.3
Sant'Anna di Vinadio 13-08-2020 17:50 13.4 70 0.1 1023.2
Sant'Anna di Vinadio 13-08-2020 18:00 13.6 69 0 1023.3
Sant'Anna di Vinadio 13-08-2020 18:10 13.9 66 0.1 1023.3
Sant'Anna di Vinadio 13-08-2020 18:20 14.2 64 0 1023.1
Sant'Anna di Vinadio 13-08-2020 18:30 14.3 64 0 1023
Sant'Anna di Vinadio 13-08-2020 18:40 14.3 60 0 1022.8
Sant'Anna di Vinadio 13-08-2020 18:50 14.4 59 0.1 1022.6
Sant'Anna di Vinadio 13-08-2020 19:00 14.6 57 0 1022.4
Sant'Anna di Vinadio 13-08-2020 19:10 14.6 57 0 1022.4
Sant'Anna di Vinadio 13-08-2020 19:20 14.6 59 0 1022.3
Sant'Anna di Vinadio 13-08-2020 19:30 14.6 59 0 1022.3
Sant'Anna di Vinadio 13-08-2020 19:40 14.5 60 0 1022.4
Sant'Anna di Vinadio 13-08-2020 19:50 14.4 61 0 1022.5
Sant'Anna di Vinadio 13-08-2020 20:00 14.4 60 0 1022.5
Sant'Anna di Vinadio 13-08-2020 20:10 14.4 60 0 1022.6
Sant'Anna di Vinadio 13-08-2020 20:20 14.3 67 0.1 1022.7
Sant'Anna di Vinadio 13-08-2020 20:30 13.5 72 0.4 1022.8
Sant'Anna di Vinadio 13-08-2020 20:40 13.1 74 0.1 1022.8
Sant'Anna di Vinadio 13-08-2020 20:50 13.4 73 0 1022.8
Sant'Anna di Vinadio 13-08-2020 21:00 13.6 70 0.1 1022.9
Sant'Anna di Vinadio 13-08-2020 21:10 13.6 69 0 1022.9
Sant'Anna di Vinadio 13-08-2020 21:20 13.5 70 0 1022.8
Sant'Anna di Vinadio 13-08-2020 21:30 13.6 70 0 1022.8
Sant'Anna di Vinadio 13-08-2020 21:40 13.6 69 0 1022.9
Sant'Anna di Vinadio 13-08-2020 21:50 13.7 68 0.1 1023
Sant'Anna di Vinadio 13-08-2020 22:00 13.7 67 0 1023
Sant'Anna di Vinadio 13-08-2020 22:10 13.7 68 0 1023
Sant'Anna di Vinadio 13-08-2020 22:20 13.6 68 0 1022.9
Sant'Anna di Vinadio 13-08-2020 22:30 13.7 68 0 1022.9
Sant'Anna di Vinadio 13-08-2020 22:40 13.6 68 0 1022.8
Sant'Anna di Vinadio 13-08-2020 22:50 13.6 69 0 1022.8
Sant'Anna di Vinadio 13-08-2020 23:00 13.7 67 0 1022.7
Sant'Anna di Vinadio 13-08-2020 23:10 13.7 67 0 1022.6
Sant'Anna di Vinadio 13-08-2020 23:20 13.7 67 0 1022.6
Sant'Anna di Vinadio 13-08-2020 23:30 13.9 66 0.1 1022.6
Sant'Anna di Vinadio 13-08-2020 23:40 13.8 66 0 1022.7
Sant'Anna di Vinadio 13-08-2020 23:50 13.9 65 0 1022.6
Sant'Anna di Vinadio 14-08-2020 00:00 13.9 65 0 1022.7
Sant'Anna di Vinadio 14-08-2020 00:10 13.8 63 0 1022.7
Sant'Anna di Vinadio 14-08-2020 00:20 14 62 0 1022.7
Sant'Anna di Vinadio 14-08-2020 00:30 14.1 62 0 1022.7
Sant'Anna di Vinadio 14-08-2020 00:40 14.1 64 0 1022.8
Sant'Anna di Vinadio 14-08-2020 00:50 13.9 77 0 1022.8
Sant'Anna di Vinadio 14-08-2020 01:00 12.5 78 0 1022.7
Sant'Anna di Vinadio 14-08-2020 01:10 12.3 79 0 1022.6
Sant'Anna di Vinadio 14-08-2020 01:20 12.4 75 0 1022.5
Sant'Anna di Vinadio 14-08-2020 01:30 12.2 76 0 1022.4
Sant'Anna di Vinadio 14-08-2020 01:40 12 76 0 1022.3
Sant'Anna di Vinadio 14-08-2020 01:50 12.7 73 0 1022.2
Sant'Anna di Vinadio 14-08-2020 02:00 12.9 68 0 1022.1
Sant'Anna di Vinadio 14-08-2020 02:10 13.1 67 0 1022
Sant'Anna di Vinadio 14-08-2020 02:20 13.2 66 0 1022
Sant'Anna di Vinadio 14-08-2020 02:30 13.3 62 0 1021.9
Sant'Anna di Vinadio 14-08-2020 02:40 13.5 60 0 1021.9
Sant'Anna di Vinadio 14-08-2020 02:50 13.4 59 0 1021.7
Sant'Anna di Vinadio 14-08-2020 03:00 13.6 57 0 1021.6
Sant'Anna di Vinadio 14-08-2020 03:10 13.7 57 0 1021.6
Sant'Anna di Vinadio 14-08-2020 03:20 13.7 57 0 1021.6
Sant'Anna di Vinadio 14-08-2020 03:30 13.7 56 0 1021.6

Riassuntivo giornaliero del 14-08-2020